Time,TemperatureF,DewpointF,PressureIn,WindDirection,WindDirectionDegrees,WindSpeedMPH,WindSpeedGustMPH,Humidity,HourlyPrecipIn,Conditions,Clouds,dailyrainin,SoftwareType,DateUTC
2013-05-09 00:02:00,48.5,46.1,0.00,SW,224,0.6,2.7,91,0.00,,,0.00,WUHU216CR1000,2013-05-09 07:02:00,
2013-05-09 00:07:00,48.5,46.1,0.00,SW,224,0.6,2.7,91,0.00,,,0.00,WUHU216CR1000,2013-05-09 07:07:00,
2013-05-09 00:17:00,48.4,45.7,0.00,North,0,0.0,0.0,91,0.00,,,0.00,WUHU216CR1000,2013-05-09 07:17:00,
2013-05-09 00:22:00,48.4,45.7,0.00,North,0,0.0,0.0,91,0.00,,,0.00,WUHU216CR1000,2013-05-09 07:22:00,
2013-05-09 00:32:00,47.3,44.9,0.00,North,0,0.0,0.0,91,0.00,,,0.00,WUHU216CR1000,2013-05-09 07:32:00,
2013-05-09 00:37:00,47.3,44.9,0.00,North,0,0.0,0.0,91,0.00,,,0.00,WUHU216CR1000,2013-05-09 07:37:00,
2013-05-09 00:47:00,47.5,45.6,0.00,North,0,0.0,0.0,93,0.00,,,0.00,WUHU216CR1000,2013-05-09 07:47:00,
2013-05-09 00:52:00,47.5,45.6,0.00,North,0,0.0,0.0,93,0.00,,,0.00,WUHU216CR1000,2013-05-09 07:52:00,
2013-05-09 01:02:00,48.4,46.5,0.00,North,0,0.0,0.0,93,0.00,,,0.00,WUHU216CR1000,2013-05-09 08:02:00,
2013-05-09 01:07:00,48.4,46.5,0.00,North,0,0.0,0.0,93,0.00,,,0.00,WUHU216CR1000,2013-05-09 08:07:00,
2013-05-09 01:17:00,48.9,46.8,0.00,North,0,0.0,0.0,92,0.00,,,0.00,WUHU216CR1000,2013-05-09 08:17:00,
2013-05-09 01:22:00,48.9,46.8,0.00,North,0,0.0,0.0,92,0.00,,,0.00,WUHU216CR1000,2013-05-09 08:22:00,
2013-05-09 01:32:00,48.1,45.7,0.00,North,0,0.0,0.0,92,0.00,,,0.00,WUHU216CR1000,2013-05-09 08:32:00,
2013-05-09 01:37:00,48.1,45.7,0.00,North,0,0.0,0.0,92,0.00,,,0.00,WUHU216CR1000,2013-05-09 08:37:00,
2013-05-09 01:47:00,47.3,45.2,0.00,North,0,0.0,0.0,92,0.00,,,0.00,WUHU216CR1000,2013-05-09 08:47:00,
2013-05-09 01:52:00,47.3,45.2,0.00,North,0,0.0,0.0,92,0.00,,,0.00,WUHU216CR1000,2013-05-09 08:52:00,
2013-05-09 02:02:00,47.1,45.3,0.00,North,0,0.0,0.0,93,0.00,,,0.00,WUHU216CR1000,2013-05-09 09:02:00,
2013-05-09 02:07:00,47.1,45.3,0.00,North,0,0.0,0.0,93,0.00,,,0.00,WUHU216CR1000,2013-05-09 09:07:00,
2013-05-09 02:17:00,46.0,43.8,0.00,North,0,0.0,0.0,92,0.00,,,0.00,WUHU216CR1000,2013-05-09 09:17:00,
2013-05-09 02:22:00,46.0,43.8,0.00,North,0,0.0,0.0,92,0.00,,,0.00,WUHU216CR1000,2013-05-09 09:22:00,
2013-05-09 02:32:00,45.2,43.2,0.00,North,0,0.0,0.0,93,0.00,,,0.00,WUHU216CR1000,2013-05-09 09:32:00,
2013-05-09 02:37:00,45.2,43.2,0.00,North,0,0.0,0.0,93,0.00,,,0.00,WUHU216CR1000,2013-05-09 09:37:00,
2013-05-09 02:47:00,45.8,44.2,0.00,North,0,0.0,0.0,94,0.00,,,0.00,WUHU216CR1000,2013-05-09 09:47:00,
2013-05-09 02:52:00,45.8,44.2,0.00,North,0,0.0,0.0,94,0.00,,,0.00,WUHU216CR1000,2013-05-09 09:52:00,
2013-05-09 03:02:00,45.0,43.5,0.00,North,0,0.0,0.0,94,0.00,,,0.00,WUHU216CR1000,2013-05-09 10:02:00,
2013-05-09 03:07:00,45.0,43.5,0.00,North,0,0.0,0.0,94,0.00,,,0.00,WUHU216CR1000,2013-05-09 10:07:00,
2013-05-09 03:17:00,44.8,43.3,0.00,North,0,0.0,0.0,95,0.00,,,0.00,WUHU216CR1000,2013-05-09 10:17:00,
2013-05-09 03:22:00,44.8,43.3,0.00,North,0,0.0,0.0,95,0.00,,,0.00,WUHU216CR1000,2013-05-09 10:22:00,
2013-05-09 03:32:00,44.9,43.3,0.00,North,0,0.0,0.0,94,0.00,,,0.00,WUHU216CR1000,2013-05-09 10:32:00,
2013-05-09 03:37:00,44.9,43.3,0.00,North,0,0.0,0.0,94,0.00,,,0.00,WUHU216CR1000,2013-05-09 10:37:00,
2013-05-09 03:47:00,43.9,42.2,0.00,North,0,0.0,0.0,94,0.00,,,0.00,WUHU216CR1000,2013-05-09 10:47:00,
2013-05-09 03:52:00,43.9,42.2,0.00,North,0,0.0,0.0,94,0.00,,,0.00,WUHU216CR1000,2013-05-09 10:52:00,
2013-05-09 04:02:00,43.9,42.2,0.00,North,0,0.0,0.0,94,0.00,,,0.00,WUHU216CR1000,2013-05-09 11:02:00,
2013-05-09 04:07:00,43.9,42.2,0.00,North,0,0.0,0.0,94,0.00,,,0.00,WUHU216CR1000,2013-05-09 11:07:00,
2013-05-09 04:17:00,43.9,42.3,0.00,SE,137,1.5,2.6,94,0.00,,,0.00,WUHU216CR1000,2013-05-09 11:17:00,
2013-05-09 04:22:00,43.9,42.3,0.00,SE,137,1.5,2.6,94,0.00,,,0.00,WUHU216CR1000,2013-05-09 11:22:00,
2013-05-09 04:32:00,43.4,42.0,0.00,SE,141,0.1,0.8,95,0.00,,,0.00,WUHU216CR1000,2013-05-09 11:32:00,
2013-05-09 04:37:00,43.4,42.0,0.00,SE,141,0.1,0.8,95,0.00,,,0.00,WUHU216CR1000,2013-05-09 11:37:00,
2013-05-09 04:47:00,43.3,41.9,0.00,North,0,0.0,0.0,95,0.00,,,0.00,WUHU216CR1000,2013-05-09 11:47:00,
2013-05-09 04:52:00,43.3,41.9,0.00,North,0,0.0,0.0,95,0.00,,,0.00,WUHU216CR1000,2013-05-09 11:52:00,
2013-05-09 05:02:00,43.0,41.7,0.00,North,351,1.2,2.4,95,0.00,,,0.00,WUHU216CR1000,2013-05-09 12:02:00,
2013-05-09 05:07:00,43.0,41.7,0.00,North,351,1.2,2.4,95,0.00,,,0.00,WUHU216CR1000,2013-05-09 12:07:00,
2013-05-09 05:17:00,43.9,42.6,0.00,WNW,296,0.9,1.5,95,0.00,,,0.00,WUHU216CR1000,2013-05-09 12:17:00,
2013-05-09 05:22:00,43.9,42.6,0.00,WNW,296,0.9,1.5,95,0.00,,,0.00,WUHU216CR1000,2013-05-09 12:22:00,
2013-05-09 05:32:00,44.5,43.2,0.00,North,0,0.0,0.0,95,0.00,,,0.00,WUHU216CR1000,2013-05-09 12:32:00,
2013-05-09 05:37:00,44.5,43.2,0.00,North,0,0.0,0.0,95,0.00,,,0.00,WUHU216CR1000,2013-05-09 12:37:00,
2013-05-09 05:47:00,45.4,44.0,0.00,North,0,0.0,0.0,95,0.00,,,0.00,WUHU216CR1000,2013-05-09 12:47:00,
2013-05-09 05:52:00,45.4,44.0,0.00,North,0,0.0,0.0,95,0.00,,,0.00,WUHU216CR1000,2013-05-09 12:52:00,
2013-05-09 06:02:00,46.7,45.4,0.00,ENE,66,1.5,2.4,95,0.00,,,0.00,WUHU216CR1000,2013-05-09 13:02:00,
2013-05-09 06:07:00,46.7,45.4,0.00,ENE,66,1.5,2.4,95,0.00,,,0.00,WUHU216CR1000,2013-05-09 13:07:00,
2013-05-09 06:17:00,47.2,45.9,0.00,East,99,0.3,2.1,95,0.00,,,0.00,WUHU216CR1000,2013-05-09 13:17:00,
2013-05-09 06:22:00,47.2,45.9,0.00,East,99,0.3,2.1,95,0.00,,,0.00,WUHU216CR1000,2013-05-09 13:22:00,
2013-05-09 06:32:00,47.5,46.1,0.00,North,0,0.0,0.0,95,0.00,,,0.00,WUHU216CR1000,2013-05-09 13:32:00,
2013-05-09 06:37:00,47.5,46.1,0.00,North,0,0.0,0.0,95,0.00,,,0.00,WUHU216CR1000,2013-05-09 13:37:00,
2013-05-09 06:47:00,48.0,46.5,0.00,North,0,0.0,0.0,95,0.00,,,0.00,WUHU216CR1000,2013-05-09 13:47:00,
2013-05-09 06:52:00,48.0,46.5,0.00,North,0,0.0,0.0,95,0.00,,,0.00,WUHU216CR1000,2013-05-09 13:52:00,
2013-05-09 07:02:00,48.5,47.0,0.00,North,0,0.0,0.0,94,0.00,,,0.00,WUHU216CR1000,2013-05-09 14:02:00,
2013-05-09 07:07:00,48.5,47.0,0.00,North,0,0.0,0.0,94,0.00,,,0.00,WUHU216CR1000,2013-05-09 14:07:00,
2013-05-09 07:17:00,49.0,47.3,0.00,North,0,0.0,0.0,94,0.00,,,0.00,WUHU216CR1000,2013-05-09 14:17:00,
2013-05-09 07:22:00,49.0,47.3,0.00,North,0,0.0,0.0,94,0.00,,,0.00,WUHU216CR1000,2013-05-09 14:22:00,
2013-05-09 07:32:00,49.5,47.6,0.00,North,0,0.0,0.0,93,0.00,,,0.00,WUHU216CR1000,2013-05-09 14:32:00,
2013-05-09 07:37:00,49.5,47.6,0.00,North,0,0.0,0.0,93,0.00,,,0.00,WUHU216CR1000,2013-05-09 14:37:00,
2013-05-09 07:47:00,50.1,47.7,0.00,NE,56,1.1,2.6,91,0.00,,,0.00,WUHU216CR1000,2013-05-09 14:47:00,
2013-05-09 07:52:00,50.1,47.7,0.00,NE,56,1.1,2.6,91,0.00,,,0.00,WUHU216CR1000,2013-05-09 14:52:00,
2013-05-09 08:02:00,50.6,47.8,0.00,NE,55,1.6,2.7,90,0.00,,,0.00,WUHU216CR1000,2013-05-09 15:02:00,
2013-05-09 08:07:00,50.6,47.8,0.00,NE,55,1.6,2.7,90,0.00,,,0.00,WUHU216CR1000,2013-05-09 15:07:00,
2013-05-09 08:17:00,51.4,48.2,0.00,East,86,1.9,3.6,89,0.00,,,0.00,WUHU216CR1000,2013-05-09 15:17:00,
2013-05-09 08:22:00,51.4,48.2,0.00,East,86,1.9,3.6,89,0.00,,,0.00,WUHU216CR1000,2013-05-09 15:22:00,
2013-05-09 08:32:00,52.8,48.2,0.00,ENE,59,2.7,4.7,84,0.00,,,0.00,WUHU216CR1000,2013-05-09 15:32:00,
2013-05-09 08:37:00,52.8,48.2,0.00,ENE,59,2.7,4.7,84,0.00,,,0.00,WUHU216CR1000,2013-05-09 15:37:00,
2013-05-09 08:47:00,53.5,48.3,0.00,ENE,63,3.1,5.3,83,0.00,,,0.00,WUHU216CR1000,2013-05-09 15:47:00,
2013-05-09 08:52:00,53.5,48.3,0.00,ENE,63,3.1,5.3,83,0.00,,,0.00,WUHU216CR1000,2013-05-09 15:52:00,
2013-05-09 09:02:00,53.5,48.3,0.00,East,90,2.7,5.2,82,0.00,,,0.00,WUHU216CR1000,2013-05-09 16:02:00,
2013-05-09 09:07:00,53.5,48.3,0.00,East,90,2.7,5.2,82,0.00,,,0.00,WUHU216CR1000,2013-05-09 16:07:00,
2013-05-09 09:17:00,55.1,48.8,0.00,ENE,76,2.3,6.6,79,0.00,,,0.00,WUHU216CR1000,2013-05-09 16:17:00,
2013-05-09 09:22:00,55.1,48.8,0.00,ENE,76,2.3,6.6,79,0.00,,,0.00,WUHU216CR1000,2013-05-09 16:22:00,
2013-05-09 09:32:00,56.9,49.1,0.00,ENE,73,2.1,6.2,75,0.00,,,0.00,WUHU216CR1000,2013-05-09 16:32:00,
2013-05-09 09:37:00,56.9,49.1,0.00,ENE,73,2.1,6.2,75,0.00,,,0.00,WUHU216CR1000,2013-05-09 16:37:00,
2013-05-09 09:47:00,57.9,49.2,0.00,East,82,3.4,7.7,73,0.00,,,0.00,WUHU216CR1000,2013-05-09 16:47:00,
2013-05-09 09:52:00,57.9,49.2,0.00,East,82,3.4,7.7,73,0.00,,,0.00,WUHU216CR1000,2013-05-09 16:52:00,
2013-05-09 10:02:00,58.6,49.5,0.00,SSE,152,2.3,6.1,72,0.00,,,0.00,WUHU216CR1000,2013-05-09 17:02:00,
2013-05-09 10:07:00,58.6,49.5,0.00,SSE,152,2.3,6.1,72,0.00,,,0.00,WUHU216CR1000,2013-05-09 17:07:00,
2013-05-09 10:17:00,59.4,49.5,0.00,ESE,102,3.0,7.6,70,0.00,,,0.00,WUHU216CR1000,2013-05-09 17:17:00,
2013-05-09 10:22:00,59.4,49.5,0.00,ESE,102,3.0,7.6,70,0.00,,,0.00,WUHU216CR1000,2013-05-09 17:22:00,
2013-05-09 10:32:00,60.5,49.9,0.00,ESE,107,3.3,8.4,68,0.00,,,0.00,WUHU216CR1000,2013-05-09 17:32:00,
2013-05-09 10:37:00,60.5,49.9,0.00,ESE,107,3.3,8.4,68,0.00,,,0.00,WUHU216CR1000,2013-05-09 17:37:00,
2013-05-09 10:47:00,61.3,50.2,0.00,East,85,3.2,8.2,67,0.00,,,0.00,WUHU216CR1000,2013-05-09 17:47:00,
2013-05-09 10:52:00,61.3,50.2,0.00,East,85,3.2,8.2,67,0.00,,,0.00,WUHU216CR1000,2013-05-09 17:52:00,
2013-05-09 11:02:00,63.2,50.9,0.00,SE,129,3.0,8.3,64,0.00,,,0.00,WUHU216CR1000,2013-05-09 18:02:00,
2013-05-09 11:07:00,63.2,50.9,0.00,SE,129,3.0,8.3,64,0.00,,,0.00,WUHU216CR1000,2013-05-09 18:07:00,
2013-05-09 11:17:00,63.8,51.2,0.00,SSE,159,4.7,8.6,64,0.00,,,0.00,WUHU216CR1000,2013-05-09 18:17:00,
2013-05-09 11:22:00,63.8,51.2,0.00,SSE,159,4.7,8.6,64,0.00,,,0.00,WUHU216CR1000,2013-05-09 18:22:00,
2013-05-09 11:32:00,64.5,51.7,0.00,SSE,167,4.1,9.3,63,0.00,,,0.00,WUHU216CR1000,2013-05-09 18:32:00,
2013-05-09 11:37:00,64.5,51.7,0.00,SSE,167,4.1,9.3,63,0.00,,,0.00,WUHU216CR1000,2013-05-09 18:37:00,
2013-05-09 11:47:00,65.7,52.0,0.00,SSE,151,3.3,9.5,61,0.00,,,0.00,WUHU216CR1000,2013-05-09 18:47:00,
2013-05-09 11:52:00,65.7,52.0,0.00,SSE,151,3.3,9.5,61,0.00,,,0.00,WUHU216CR1000,2013-05-09 18:52:00,
2013-05-09 12:02:00,67.8,52.7,0.00,SE,126,3.3,9.0,58,0.00,,,0.00,WUHU216CR1000,2013-05-09 19:02:00,
2013-05-09 12:07:00,67.8,52.7,0.00,SE,126,3.3,9.0,58,0.00,,,0.00,WUHU216CR1000,2013-05-09 19:07:00,
2013-05-09 12:17:00,68.5,52.4,0.00,SSW,201,4.6,9.0,56,0.00,,,0.00,WUHU216CR1000,2013-05-09 19:17:00,
2013-05-09 12:22:00,68.5,52.4,0.00,SSW,201,4.6,9.0,56,0.00,,,0.00,WUHU216CR1000,2013-05-09 19:22:00,
2013-05-09 12:32:00,68.7,52.3,0.00,SSW,199,4.2,10.3,56,0.00,,,0.00,WUHU216CR1000,2013-05-09 19:32:00,
2013-05-09 12:37:00,68.7,52.3,0.00,SSW,199,4.2,10.3,56,0.00,,,0.00,WUHU216CR1000,2013-05-09 19:37:00,
2013-05-09 12:47:00,70.5,52.7,0.00,South,182,3.9,10.5,53,0.00,,,0.00,WUHU216CR1000,2013-05-09 19:47:00,
2013-05-09 12:52:00,70.5,52.7,0.00,South,182,3.9,10.5,53,0.00,,,0.00,WUHU216CR1000,2013-05-09 19:52:00,
2013-05-09 13:02:00,70.5,52.4,0.00,SE,126,3.1,6.9,53,0.00,,,0.00,WUHU216CR1000,2013-05-09 20:02:00,
2013-05-09 13:07:00,70.5,52.4,0.00,SE,126,3.1,6.9,53,0.00,,,0.00,WUHU216CR1000,2013-05-09 20:07:00,
2013-05-09 13:17:00,72.1,52.9,0.00,SSE,167,3.6,7.7,51,0.00,,,0.00,WUHU216CR1000,2013-05-09 20:17:00,
2013-05-09 13:22:00,72.1,52.9,0.00,SSE,167,3.6,7.7,51,0.00,,,0.00,WUHU216CR1000,2013-05-09 20:22:00,
2013-05-09 13:32:00,72.7,52.9,0.00,SW,214,4.5,8.3,50,0.00,,,0.00,WUHU216CR1000,2013-05-09 20:32:00,
2013-05-09 13:37:00,72.7,52.9,0.00,SW,214,4.5,8.3,50,0.00,,,0.00,WUHU216CR1000,2013-05-09 20:37:00,
2013-05-09 13:47:00,72.8,53.1,0.00,SW,218,4.6,9.6,50,0.00,,,0.00,WUHU216CR1000,2013-05-09 20:47:00,
2013-05-09 13:52:00,72.8,53.1,0.00,SW,218,4.6,9.6,50,0.00,,,0.00,WUHU216CR1000,2013-05-09 20:52:00,
2013-05-09 14:02:00,74.3,53.6,0.00,SE,125,5.0,9.9,48,0.00,,,0.00,WUHU216CR1000,2013-05-09 21:02:00,
2013-05-09 14:07:00,74.3,53.6,0.00,SE,125,5.0,9.9,48,0.00,,,0.00,WUHU216CR1000,2013-05-09 21:07:00,
2013-05-09 14:16:00,74.2,53.7,0.00,South,183,5.0,12.9,49,0.00,,,0.00,WUHU216CR1000,2013-05-09 21:16:00,
2013-05-09 14:17:00,74.2,53.7,0.00,South,183,5.0,12.9,49,0.00,,,0.00,WUHU216CR1000,2013-05-09 21:17:00,
2013-05-09 14:22:00,74.2,53.7,0.00,South,183,5.0,12.9,49,0.00,,,0.00,WUHU216CR1000,2013-05-09 21:22:00,
2013-05-09 14:32:00,74.7,54.5,0.00,SE,142,5.5,9.9,49,0.00,,,0.00,WUHU216CR1000,2013-05-09 21:32:00,
2013-05-09 14:37:00,74.7,54.5,0.00,SE,142,5.5,9.9,49,0.00,,,0.00,WUHU216CR1000,2013-05-09 21:37:00,
2013-05-09 14:46:00,74.8,54.8,0.00,SSE,154,5.7,11.7,50,0.00,,,0.00,WUHU216CR1000,2013-05-09 21:46:00,
2013-05-09 14:47:00,74.8,54.8,0.00,SSE,154,5.7,11.7,50,0.00,,,0.00,WUHU216CR1000,2013-05-09 21:47:00,
2013-05-09 14:52:00,74.8,54.8,0.00,SSE,154,5.7,11.7,50,0.00,,,0.00,WUHU216CR1000,2013-05-09 21:52:00,
2013-05-09 15:01:00,74.5,54.8,0.00,SE,136,6.0,12.1,50,0.00,,,0.00,WUHU216CR1000,2013-05-09 22:01:00,
2013-05-09 15:02:00,74.5,54.8,0.00,SE,136,6.0,12.1,50,0.00,,,0.00,WUHU216CR1000,2013-05-09 22:02:00,
2013-05-09 15:07:00,74.5,54.8,0.00,SE,136,6.0,12.1,50,0.00,,,0.00,WUHU216CR1000,2013-05-09 22:07:00,
2013-05-09 15:17:00,74.7,55.0,0.00,SE,138,5.4,10.0,50,0.00,,,0.00,WUHU216CR1000,2013-05-09 22:17:00,
2013-05-09 15:22:00,74.7,55.0,0.00,SE,138,5.4,10.0,50,0.00,,,0.00,WUHU216CR1000,2013-05-09 22:22:00,
2013-05-09 15:31:00,74.8,55.1,0.00,SSE,161,6.1,13.4,50,0.00,,,0.00,WUHU216CR1000,2013-05-09 22:31:00,
2013-05-09 15:32:00,74.8,55.1,0.00,SSE,161,6.1,13.4,50,0.00,,,0.00,WUHU216CR1000,2013-05-09 22:32:00,
2013-05-09 15:37:00,74.8,55.1,0.00,SSE,161,6.1,13.4,50,0.00,,,0.00,WUHU216CR1000,2013-05-09 22:37:00,
2013-05-09 15:47:00,74.8,55.1,0.00,SE,138,6.0,11.2,50,0.00,,,0.00,WUHU216CR1000,2013-05-09 22:47:00,
2013-05-09 15:52:00,74.8,55.1,0.00,SE,138,6.0,11.2,50,0.00,,,0.00,WUHU216CR1000,2013-05-09 22:52:00,
2013-05-09 16:02:00,74.4,54.9,0.00,SSE,165,6.4,12.5,51,0.00,,,0.00,WUHU216CR1000,2013-05-09 23:02:00,
2013-05-09 16:07:00,74.4,54.9,0.00,SSE,165,6.4,12.5,51,0.00,,,0.00,WUHU216CR1000,2013-05-09 23:07:00,
2013-05-09 16:17:00,74.3,54.8,0.00,South,175,6.2,13.0,51,0.00,,,0.00,WUHU216CR1000,2013-05-09 23:17:00,
2013-05-09 16:22:00,74.3,54.8,0.00,South,175,6.2,13.0,51,0.00,,,0.00,WUHU216CR1000,2013-05-09 23:22:00,
2013-05-09 16:32:00,74.0,54.7,0.00,SSE,167,5.9,12.3,51,0.00,,,0.00,WUHU216CR1000,2013-05-09 23:32:00,
2013-05-09 16:37:00,74.0,54.7,0.00,SSE,167,5.9,12.3,51,0.00,,,0.00,WUHU216CR1000,2013-05-09 23:37:00,
2013-05-09 16:47:00,73.4,54.4,0.00,South,172,6.5,11.5,51,0.00,,,0.00,WUHU216CR1000,2013-05-09 23:47:00,
2013-05-09 16:52:00,73.4,54.4,0.00,South,172,6.5,11.5,51,0.00,,,0.00,WUHU216CR1000,2013-05-09 23:52:00,
2013-05-09 17:02:00,72.8,54.3,0.00,SSE,165,6.0,11.2,52,0.00,,,0.00,WUHU216CR1000,2013-05-10 00:02:00,
2013-05-09 17:07:00,72.8,54.3,0.00,SSE,165,6.0,11.2,52,0.00,,,0.00,WUHU216CR1000,2013-05-10 00:07:00,
2013-05-09 17:17:00,72.8,54.2,0.00,SSE,151,6.3,10.7,52,0.00,,,0.00,WUHU216CR1000,2013-05-10 00:17:00,
2013-05-09 17:22:00,72.8,54.2,0.00,SSE,151,6.3,10.7,52,0.00,,,0.00,WUHU216CR1000,2013-05-10 00:22:00,
2013-05-09 17:32:00,72.0,54.0,0.00,SE,144,5.6,10.3,53,0.00,,,0.00,WUHU216CR1000,2013-05-10 00:32:00,
2013-05-09 17:37:00,72.0,54.0,0.00,SE,144,5.6,10.3,53,0.00,,,0.00,WUHU216CR1000,2013-05-10 00:37:00,
2013-05-09 17:47:00,71.8,53.9,0.00,SSW,193,5.4,9.3,53,0.00,,,0.00,WUHU216CR1000,2013-05-10 00:47:00,
2013-05-09 17:52:00,71.8,53.9,0.00,SSW,193,5.4,9.3,53,0.00,,,0.00,WUHU216CR1000,2013-05-10 00:52:00,
2013-05-09 18:02:00,71.5,53.8,0.00,South,179,4.8,9.6,54,0.00,,,0.00,WUHU216CR1000,2013-05-10 01:02:00,
2013-05-09 18:07:00,71.5,53.8,0.00,South,179,4.8,9.6,54,0.00,,,0.00,WUHU216CR1000,2013-05-10 01:07:00,
2013-05-09 18:17:00,71.0,53.5,0.00,South,185,4.3,9.1,54,0.00,,,0.00,WUHU216CR1000,2013-05-10 01:17:00,
2013-05-09 18:22:00,71.0,53.5,0.00,South,185,4.3,9.1,54,0.00,,,0.00,WUHU216CR1000,2013-05-10 01:22:00,
2013-05-09 18:32:00,70.2,53.2,0.00,SSW,202,4.4,8.2,55,0.00,,,0.00,WUHU216CR1000,2013-05-10 01:32:00,
2013-05-09 18:37:00,70.2,53.2,0.00,SSW,202,4.4,8.2,55,0.00,,,0.00,WUHU216CR1000,2013-05-10 01:37:00,
2013-05-09 18:47:00,69.5,53.0,0.00,South,188,3.7,8.9,56,0.00,,,0.00,WUHU216CR1000,2013-05-10 01:47:00,
2013-05-09 18:52:00,69.5,53.0,0.00,South,188,3.7,8.9,56,0.00,,,0.00,WUHU216CR1000,2013-05-10 01:52:00,
2013-05-09 19:02:00,68.6,52.8,0.00,SE,139,3.9,7.6,57,0.00,,,0.00,WUHU216CR1000,2013-05-10 02:02:00,
2013-05-09 19:07:00,68.6,52.8,0.00,SE,139,3.9,7.6,57,0.00,,,0.00,WUHU216CR1000,2013-05-10 02:07:00,
2013-05-09 19:12:00,68.6,52.8,0.00,SE,139,3.9,7.6,57,0.00,,,0.00,WUHU216CR1000,2013-05-10 02:12:00,
2013-05-09 19:17:00,67.3,52.5,0.00,SSE,148,4.2,8.6,59,0.00,,,0.00,WUHU216CR1000,2013-05-10 02:17:00,
2013-05-09 19:22:00,67.3,52.5,0.00,SSE,148,4.2,8.6,59,0.00,,,0.00,WUHU216CR1000,2013-05-10 02:22:00,
2013-05-09 19:32:00,66.2,52.2,0.00,SSE,148,3.4,6.7,61,0.00,,,0.00,WUHU216CR1000,2013-05-10 02:32:00,
2013-05-09 19:37:00,66.2,52.2,0.00,SSE,148,3.4,6.7,61,0.00,,,0.00,WUHU216CR1000,2013-05-10 02:37:00,
2013-05-09 19:47:00,64.7,51.8,0.00,SE,137,2.9,6.4,63,0.00,,,0.00,WUHU216CR1000,2013-05-10 02:47:00,
2013-05-09 19:52:00,64.7,51.8,0.00,SE,137,2.9,6.4,63,0.00,,,0.00,WUHU216CR1000,2013-05-10 02:52:00,
2013-05-09 20:02:00,63.1,51.5,0.00,SSE,164,2.5,6.2,66,0.00,,,0.00,WUHU216CR1000,2013-05-10 03:02:00,
2013-05-09 20:07:00,63.1,51.5,0.00,SSE,164,2.5,6.2,66,0.00,,,0.00,WUHU216CR1000,2013-05-10 03:07:00,
2013-05-09 20:17:00,61.3,50.9,0.00,SSW,202,2.8,4.9,69,0.00,,,0.00,WUHU216CR1000,2013-05-10 03:17:00,
2013-05-09 20:22:00,61.3,50.9,0.00,SSW,202,2.8,4.9,69,0.00,,,0.00,WUHU216CR1000,2013-05-10 03:22:00,
2013-05-09 20:32:00,59.5,50.4,0.00,SSW,212,2.9,5.3,72,0.00,,,0.00,WUHU216CR1000,2013-05-10 03:32:00,
2013-05-09 20:37:00,59.5,50.4,0.00,SSW,212,2.9,5.3,72,0.00,,,0.00,WUHU216CR1000,2013-05-10 03:37:00,
2013-05-09 20:47:00,57.9,49.8,0.00,SSW,209,1.9,4.2,75,0.00,,,0.00,WUHU216CR1000,2013-05-10 03:47:00,
2013-05-09 20:52:00,57.9,49.8,0.00,SSW,209,1.9,4.2,75,0.00,,,0.00,WUHU216CR1000,2013-05-10 03:52:00,
2013-05-09 21:02:00,56.6,49.5,0.00,SSW,204,2.6,5.4,77,0.00,,,0.00,WUHU216CR1000,2013-05-10 04:02:00,
2013-05-09 21:07:00,56.6,49.5,0.00,SSW,204,2.6,5.4,77,0.00,,,0.00,WUHU216CR1000,2013-05-10 04:07:00,
2013-05-09 21:17:00,55.4,49.1,0.00,South,173,1.8,5.3,79,0.00,,,0.00,WUHU216CR1000,2013-05-10 04:17:00,
2013-05-09 21:22:00,55.4,49.1,0.00,South,173,1.8,5.3,79,0.00,,,0.00,WUHU216CR1000,2013-05-10 04:22:00,
2013-05-09 21:32:00,54.5,48.9,0.00,SSW,193,0.6,2.5,81,0.00,,,0.00,WUHU216CR1000,2013-05-10 04:32:00,
2013-05-09 21:37:00,54.5,48.9,0.00,SSW,193,0.6,2.5,81,0.00,,,0.00,WUHU216CR1000,2013-05-10 04:37:00,
2013-05-09 21:47:00,53.6,48.7,0.00,SSW,201,1.6,3.7,83,0.00,,,0.00,WUHU216CR1000,2013-05-10 04:47:00,
2013-05-09 21:52:00,53.6,48.7,0.00,SSW,201,1.6,3.7,83,0.00,,,0.00,WUHU216CR1000,2013-05-10 04:52:00,
2013-05-09 22:02:00,53.0,48.5,0.00,SSW,211,1.1,2.9,84,0.00,,,0.00,WUHU216CR1000,2013-05-10 05:02:00,
2013-05-09 22:07:00,53.0,48.5,0.00,SSW,211,1.1,2.9,84,0.00,,,0.00,WUHU216CR1000,2013-05-10 05:07:00,
2013-05-09 22:17:00,52.3,48.3,0.00,North,0,0.0,0.0,86,0.00,,,0.00,WUHU216CR1000,2013-05-10 05:17:00,
2013-05-09 22:22:00,52.3,48.3,0.00,North,0,0.0,0.0,86,0.00,,,0.00,WUHU216CR1000,2013-05-10 05:22:00,
2013-05-09 22:32:00,52.1,48.2,0.00,North,0,0.0,0.0,87,0.00,,,0.00,WUHU216CR1000,2013-05-10 05:32:00,
2013-05-09 22:37:00,52.1,48.2,0.00,North,0,0.0,0.0,87,0.00,,,0.00,WUHU216CR1000,2013-05-10 05:37:00,
2013-05-09 22:47:00,51.3,47.6,0.00,North,0,0.0,0.0,87,0.00,,,0.00,WUHU216CR1000,2013-05-10 05:47:00,
2013-05-09 22:52:00,51.3,47.6,0.00,North,0,0.0,0.0,87,0.00,,,0.00,WUHU216CR1000,2013-05-10 05:52:00,
2013-05-09 23:02:00,50.5,47.1,0.00,North,0,0.0,0.0,88,0.00,,,0.00,WUHU216CR1000,2013-05-10 06:02:00,
2013-05-09 23:07:00,50.5,47.1,0.00,North,0,0.0,0.0,88,0.00,,,0.00,WUHU216CR1000,2013-05-10 06:07:00,
2013-05-09 23:12:00,50.5,47.1,0.00,North,0,0.0,0.0,88,0.00,,,0.00,WUHU216CR1000,2013-05-10 06:12:00,
2013-05-09 23:17:00,49.4,46.5,0.00,North,0,0.0,0.0,90,0.00,,,0.00,WUHU216CR1000,2013-05-10 06:17:00,
2013-05-09 23:22:00,49.4,46.5,0.00,North,0,0.0,0.0,90,0.00,,,0.00,WUHU216CR1000,2013-05-10 06:22:00,
2013-05-09 23:32:00,49.2,46.9,0.00,North,0,0.0,0.0,92,0.00,,,0.00,WUHU216CR1000,2013-05-10 06:32:00,
2013-05-09 23:37:00,49.2,46.9,0.00,North,0,0.0,0.0,92,0.00,,,0.00,WUHU216CR1000,2013-05-10 06:37:00,
2013-05-09 23:47:00,48.5,45.7,0.00,North,0,0.0,0.0,90,0.00,,,0.00,WUHU216CR1000,2013-05-10 06:47:00,
2013-05-09 23:52:00,48.5,45.7,0.00,North,0,0.0,0.0,90,0.00,,,0.00,WUHU216CR1000,2013-05-10 06:52:00,